Regional Weather Roundup
Issued by NWS Burlington, VT

Current Version | Previous Version | Text Only | Print | Product List | Glossary On
Versions: 1 2 3 4 5 6 7 8 9 10 11 12 13 14 15 16 17 18 19 20 21 22 23 24 25 26 27 28 29 30 31 32 33 34 35 36 37 38 39 40 41 42 43 44 45 46 47 48 49 50
000
ASUS41 KBTV 250410
RWRBTV
VERMONT REGIONAL WEATHER ROUNDUP
NATIONAL WEATHER SERVICE BURLINGTON VT
1100 PM EST WED DEC 24 2014

NOTE: "FAIR" INDICATES FEW OR NO CLOUDS BELOW 12,000 FEET WITH NO
SIGNIFICANT WEATHER AND/OR OBSTRUCTIONS TO VISIBILITY.

* THESE REPORTS ARE NOT UNDER NWS QUALITY CONTROL AND/OR DO NOT
  REPORT WEATHER SUCH AS PRECIPITATION AND FOG.

VTZ001>019-250500-
_____VERMONT_____


CITY           SKY/WX    TMP DP  RH WIND       PRES   REMARKS
BURLINGTON     CLOUDY    44  41  89 S13       29.44F FOG
MONTPELIER     CLOUDY    38  37  97 S6        29.54F
MORRISVILLE    CLOUDY    41  38  89 S6        29.51F
ST. JOHNSBURY*   N/A     36  36 100 MISG      29.52F
LYNDONVILLE*   FOG       39  37  92 CALM      29.53F VSB 3/4
MIDDLEBURY*    CLOUDY    44  44 100 SW6       29.45F FOG
RUTLAND*       CLOUDY    46  43  87 SE20      29.47F
SPRINGFIELD    FOG       34  33  96 CALM      29.56F VSB 1
HIGHGATE*      CLOUDY    43  42  97 S5        29.43S
NEWPORT*       CLOUDY    38  37  98 S12       29.46F
BENNINGTON     CLOUDY    57  52  83 MISG      29.49F
SUTTON*          N/A     37 N/A N/A MISG        N/A

_____LAKE CHAMPLAIN_____


CITY           SKY/WX    TMP DP  RH WIND       PRES   REMARKS
COLCHESTER RF*   N/A     45  43  93 S23         N/A

$$

NYZ007-026>031-035-052-083-250500-
_____NORTHERN NEW YORK_____


CITY           SKY/WX    TMP DP  RH WIND       PRES   REMARKS
PLATTSBURGH    CLOUDY    43  42  97 S9        29.40F
SARANAC LAKE   CLOUDY    45  44  97 SW8       29.37F
MASSENA        FOG       37  36  96 NE6       29.36F VSB 3/4
POTSDAM*       FOG       39  39 100 SE5       29.32F VSB 3/4
WATERTOWN      CLOUDY    57  47  69 S7        29.29F
FT DRUM        CLOUDY    48  45  87 SE15      29.40F
ALBANY         DRIZZLE   50  48  93 S8        29.48F FOG
GLENS FALLS    FOG       38  36  92 CALM      29.48F VSB 1/2

$$
NHZ002-005-011-250500-
_____NEW HAMPSHIRE_____


CITY           SKY/WX    TMP DP  RH WIND       PRES   REMARKS
LEBANON        FOG       36  35  96 CALM      29.55S VSB 1/2
KEENE          CLOUDY    39  37  93 CALM      29.57F
MT WASHINGTON  LGT RAIN  41  41 100 SW52G68     N/A  VSB 0
PLYMOUTH       DRZL/FOG  35  35 100 E3        29.59F VSB 1
WHITEFIELD     CLOUDY    39  38  96 CALM      29.51F

$$

_____REGIONAL QUEBEC LOCATIONS_____


CITY           SKY/WX    TMP DP  RH WIND       PRES   REMARKS
MONTREAL       CLOUDY    39  37  93 N7        29.39F
SHERBROOKE     CLOUDY    41  41 100 E6        29.43F

_____REGIONAL ONTARIO LOCATIONS_____


CITY           SKY/WX    TMP DP  RH WIND       PRES   REMARKS
OTTAWA         FOG       37  37 100 E14       29.30F VSB 1/2

______KEY______
VSB  - VISIBILITY IN MILES
WCI  - WIND CHILL INDEX
HX   - HEAT INDEX
$$
NNNN


USA.gov is the U.S. government's official web portal to all federal, state and local government web resources and services.